ボアッティーニ彗星

C/2010 U3 ( Boattini )

English version
Home page
Updated on December 24, 2019

---------------------------------------------------------------------

・ プロフィール

発見日 2010年10月31日
発見光度 19.4等
発見者 A. Boattini (Mt. Lemmon)

・ 写真集

・ 軌道要素

Epoch 2019 Mar. 18.0 TT = JDT 2458560.5
T 2019 Feb. 26.62306 TT                                 Williams
q   8.4455213            (2000.0)            P               Q
z  +0.0001962      Peri.   88.08636     -0.36204791     -0.74305609
 +/-0.0000003      Node    43.06733     +0.07255783     -0.62443462
e   0.9983432      Incl.   55.51178     +0.92933130     -0.24072609
From 1900 observations 2005 Nov. 5-2019 Nov. 29, mean residual 0".6.

・ 星図

・ 光度変化

        m1 = 7.5 + 5 logΔ + 5.0 log r

---------------------------------------------------------------------

軌道要素はM.P.E.C. 2019-X94に掲載されたものです。
星図はステラナビゲータ Ver.8 (アストロアーツ) で作成したものです。
光度グラフはComet for Windowsで作成したものです。

---------------------------------------------------------------------

Copyright(C) Seiichi Yoshida (comet@aerith.net). All rights reserved.